sat.trackr.live / text

‹ back to catalog

CZ-6A R/B

NORAD 69818 · 2026-153U

ROCKET_BODY UNKNOWN UNKNOWN

§ Identity

Operator
Country
PRC
Launch date
2026-07-04
Launch site
TAISC
Launch vehicle
Mass (kg)
RCS (m²)

External: N2YO · Heavens-Above · Gunter

§ Orbital elements

Epoch: 2026-08-02T21:49:01.129440Z

Period
99.07 min
Inclination
89.0189°
Eccentricity
0.0085493
Mean motion
14.53458540 rev/d
Perigee alt
653.7 km
Apogee alt
775.0 km
Semi-major
7,092.5 km
B*
6.1288e-5
RAAN
356.7726°
Arg perigee
24.2460°
Mean anomaly
336.2734°
Rev number
429

§ Raw data

CZ-6A R/B1 69818U 26153U   26214.90904085  .00000286  00000+0  61288-4 0  99932 69818  89.0189 356.7726 0085493  24.2460 336.2734 14.53458540  4294

JSON: /api/v1/satellites/69818 · /tle

For live sub-satellite position, see the globe view (requires WebGL).

§ Visibility from observer

Set your observer location to see the next 7 days of passes ≥ 10°. The values pass through the URL so the page stays shareable.

No JS? Fill the form by hand. The geolocation button needs JavaScript.